Lexington Weather

Lexington, Massachusetts, USA

36°F
1/28/2020 4:20am 
  • Lexington Conditions: Overcast
  • Temperature: 36.1°F / 2.3°CColder 0.2°F than last hour.
  • Dew Point: 29.7°FIncreased 0.2°Fsince last hour.
  • Relative Humidity: 77%Increased 1.0% since last hour.
  • Wind: Wind from NW NW 2 mph, 10-min avg: 2 mph, gust: 3 mph
  • Barometer: 29.62 in Steady
  • Visibility: 10 miles
  • Rain Today: 0.00 in
  •   

Regional Weather Roundup
for Boston / Norton, MA

        
000
ASUS41 KBOX 262100
RWRBOX

REGIONAL WEATHER ROUNDUP
NATIONAL WEATHER SERVICE BOSTON/NORTON MA
400 PM EST SUN JAN 26 2020

NOTE:  "FAIR" INDICATES FEW OR NO CLOUDS BELOW 12,000 FEET WITH NO 
SIGNIFICANT WEATHER AND/OR OBSTRUCTIONS TO VISIBILITY.

MAZALL-262200-
EASTERN MASSACHUSETTS
  
CITY           SKY/WX    TMP DP  RH WIND       PRES   REMARKS
BOSTON         MOCLDY    47  31  53 W14G24    29.65R                  
BEVERLY        FAIR      44  30  57 W14G25    29.63R                  
LAWRENCE       FAIR      44  30  57 W14G21    29.64R                  
BEDFORD        FAIR      44  27  51 W9G21     29.65R                  
BLUE HILL        N/A     40  31  70 W17G31    29.63R WCI  31          
NORWOOD        CLOUDY    46  31  55 W13G21    29.67R                  
MARSHFIELD     NOT AVBL                                               
PLYMOUTH       MOCLDY    46  29  51 SW15      29.65R                  
TAUNTON        MOCLDY    45  29  53 W10       29.66R                  
NEW BEDFORD    FAIR      47  29  49 W10       29.66R                  
$$

MAZALL-262200-
CAPE COD AND THE ISLANDS
  
CITY           SKY/WX    TMP DP  RH WIND       PRES   REMARKS
FALMOUTH       MOCLDY    41  36  81 W16G24    29.66S                  
HYANNIS        NOT AVBL                                               
CHATHAM        FAIR      42  36  79 SW9G16    29.67S                  
PROVINCETOWN   FAIR      44  34  67 W13       29.65R                  
NANTUCKET      FAIR      43  36  76 W15       29.69S                  
MARTHAS VNYRD  FAIR      44  34  67 W9G21     29.69R                  
$$
 
MAZALL-262200-
CENTRAL AND WESTERN MASSACHUSETTS
  
CITY           SKY/WX    TMP DP  RH WIND       PRES   REMARKS
WORCESTER      FAIR      37  29  72 W9        29.65S WCI  30          
FITCHBURG      FAIR      41  27  57 W10       29.67R                  
ORANGE         CLOUDY    40  26  57 W5        29.67S                  
SPRINGFIELD    MOCLDY    41  29  61 W9        29.68S                  
WESTFIELD      CLOUDY    41  28  60 W7        29.69S                  
NORTH ADAMS    NOT AVBL                                               
PITTSFIELD     CLOUDY    36  28  73 W8        29.65S WCI  30          
$$
 
RIZALL-262200-
RHODE ISLAND
  
CITY           SKY/WX    TMP DP  RH WIND       PRES   REMARKS
PROVIDENCE     CLOUDY    46  30  53 W9        29.68R                  
NEWPORT        MOCLDY    46  30  53 W8        29.67R                  
BLOCK ISLAND   FAIR      43  32  65 W14G23    29.72R                  
SMITHFIELD     CLOUDY    41  30  65 W14       29.68R                  
WESTERLY       MOCLDY    46  33  60 W9G21     29.70R                  
$$
 
CTZALL-262200-
CONNECTICUT
  
CITY           SKY/WX    TMP DP  RH WIND       PRES   REMARKS
BRADLEY INTL   MOCLDY    44  29  55 CALM      29.70R                  
HARTFORD       CLOUDY    45  30  55 W5        29.71S                  
BRIDGEPORT     CLOUDY    45  28  51 W8        29.74R                  
DANBURY        MOCLDY    41  26  55 W9        29.73R                  
GROTON         NOT AVBL                                               
NEW HAVEN      MOCLDY    45  29  53 W7        29.73R                  
CHESTER        NOT AVBL                                               
MERIDEN        MOCLDY    44  26  49 VRB3      29.71S                  
WILLIMANTIC    CLOUDY    43  29  57 NW10      29.71R                  
OXFORD         MOCLDY    42  26  53 W13G18    29.70S                  
$$

MEZ002-015-021-024-NHZ003-005-008-011-012-014-VTZ005-008-262200-
NORTHERN NEW ENGLAND
  
CITY           SKY/WX    TMP DP  RH WIND       PRES   REMARKS
PORTLAND ME    FAIR      45  29  53 W12       29.57R                  
BANGOR ME      CLOUDY    39  38  96 SW6       29.51S FOG              
CONCORD NH     MOCLDY    42  27  55 W12       29.62R                  
MANCHESTER NH  FAIR      44  27  51 W8        29.62R                  
NASHUA NH      FAIR      43  28  55 W10G16    29.65R                  
PORTSMOUTH NH  PTCLDY    44  26  49 W8G17     29.59R                  
JAFFREY NH     CLOUDY    38  24  57 W7        29.63S                  
KEENE NH       CLOUDY    39  27  62 VRB6      29.66R                  
BURLINGTON VT  CLOUDY    38  32  79 S8        29.59S                  
MT. WASHINGTON SNOW      16  16 100 W51         N/A  VSB 0   WCI  -9  
$$

NYZ052-076-262200-
EASTERN NEW YORK
  
CITY           SKY/WX    TMP DP  RH WIND       PRES   REMARKS
ALBANY         CLOUDY    40  30  67 S5        29.70S                  
NEW YORK CITY  CLOUDY    44  27  51 W13       29.76R                  
$$
 
ANZALL-262200-
MARINE OBSERVATIONS
  
STATION/POSITION TIME  TEMP    WIND        PRES    VSBY  WAVE
                       AIR SEA DIR/SP/G                  HT/PER
                 (UTC) (F)     (DEG/KT/KT) (MB)    (MI)  (FT/S)
BOSTON BUOY      1950   46 43  260/ 14/ 17 1002.4          5/10
BUZZARDS BAY     2000   41     250/ 22/ 25 1005.1F
NANTUCKET SOUND  NOT AVBL
MASS BAY-STELLWA 2004   44 41  310/ 14/ 16 1001.1R  1 7/8  6/11
ISLE OF SHOALS   2000   45     250/ 18/ 19 1001.7R
S OF BLOCK IS    2030      44                N/A           6/ 9
$$

......................KEY.........................
  SKY/WX - SKY CONDITION/PRESENT WEATHER
  TMP    - TEMPERATURE IN FAHRENHEIT
  DWPT   - DEWPOINT IN FAHRENHEIT
  RH     - RELATIVE HUMIDITY IN PERCENT
  WIND   - DIRECTION AND SPEED IN MPH
  PRES   - MEAN SEA LEVEL PRESSURE IN INCHES OF HG
  WCI    - WIND CHILL INDEX
  VSB    - VISIBILITY IN MILES
  HX     - HEAT INDEX
  TC     - TEMPERATURE IN CELSIUS
  VRB    - VARIABLE WIND DIRECTION
  N/A    - NOT AVAILABLE
  
      

Other recent Regional Weather Roundups

Tue Jan 28, 4:10am

Tue Jan 28, 4:00am

Tue Jan 28, 3:10am

Tue Jan 28, 3:01am

Tue Jan 28, 2:10am

Tue Jan 28, 2:00am

Tue Jan 28, 1:10am

Tue Jan 28, 1:00am

Tue Jan 28, 12:10am

Tue Jan 28, 12:01am

Mon Jan 27, 11:10pm

Mon Jan 27, 11:00pm

Mon Jan 27, 10:10pm

Mon Jan 27, 10:00pm

Mon Jan 27, 9:10pm

Mon Jan 27, 9:00pm

Mon Jan 27, 8:10pm

Mon Jan 27, 8:01pm

Mon Jan 27, 7:10pm

Mon Jan 27, 7:00pm

Mon Jan 27, 6:10pm

Mon Jan 27, 6:00pm

Mon Jan 27, 5:10pm

Mon Jan 27, 5:00pm

Mon Jan 27, 4:10pm

Mon Jan 27, 4:00pm

Mon Jan 27, 3:10pm

Mon Jan 27, 3:00pm

Mon Jan 27, 2:10pm

Mon Jan 27, 2:00pm

Mon Jan 27, 1:10pm

Mon Jan 27, 1:00pm

Mon Jan 27, 12:10pm

Mon Jan 27, 12:00pm

Mon Jan 27, 11:10am

Mon Jan 27, 11:01am

Mon Jan 27, 10:10am

Mon Jan 27, 10:00am

Mon Jan 27, 9:10am

Mon Jan 27, 9:00am

Mon Jan 27, 8:10am

Mon Jan 27, 8:00am

Mon Jan 27, 7:10am

Mon Jan 27, 7:00am

Mon Jan 27, 6:10am

Mon Jan 27, 6:00am

Mon Jan 27, 5:10am

Mon Jan 27, 5:00am

Mon Jan 27, 4:10am

Mon Jan 27, 4:01am

Mon Jan 27, 3:10am

Mon Jan 27, 3:00am

Mon Jan 27, 2:10am

Mon Jan 27, 2:00am

Mon Jan 27, 1:10am

Mon Jan 27, 1:00am

Mon Jan 27, 12:10am

Mon Jan 27, 12:00am

Sun Jan 26, 11:10pm

Sun Jan 26, 11:00pm

Sun Jan 26, 10:10pm

Sun Jan 26, 10:00pm

Sun Jan 26, 9:10pm

Sun Jan 26, 9:01pm

Sun Jan 26, 8:10pm

Sun Jan 26, 8:00pm

Sun Jan 26, 7:10pm

Sun Jan 26, 7:00pm

Sun Jan 26, 6:10pm

Sun Jan 26, 6:01pm

Sun Jan 26, 5:10pm

Sun Jan 26, 5:01pm

Sun Jan 26, 4:10pm

Sun Jan 26, 3:10pm

Sun Jan 26, 3:01pm

Sun Jan 26, 2:10pm

Sun Jan 26, 2:01pm

Sun Jan 26, 1:10pm

Sun Jan 26, 1:00pm

Sun Jan 26, 12:10pm

Sun Jan 26, 12:00pm

Sun Jan 26, 11:10am

Sun Jan 26, 11:01am

Sun Jan 26, 10:10am

Sun Jan 26, 10:01am

Sun Jan 26, 9:10am

Sun Jan 26, 9:00am

Sun Jan 26, 8:10am

Sun Jan 26, 8:00am

Sun Jan 26, 7:10am

Sun Jan 26, 7:00am

Sun Jan 26, 6:10am

Sun Jan 26, 6:00am

Sun Jan 26, 5:10am

Sun Jan 26, 5:00am

Sun Jan 26, 4:10am

Sun Jan 26, 4:01am

Sun Jan 26, 3:10am

Sun Jan 26, 3:01am

Sun Jan 26, 2:10am

Sun Jan 26, 2:00am

Sun Jan 26, 1:10am

Sun Jan 26, 1:00am

Sun Jan 26, 12:10am

Sun Jan 26, 12:00am

Sat Jan 25, 11:10pm

Sat Jan 25, 11:00pm

Sat Jan 25, 10:10pm

Sat Jan 25, 10:01pm

Sat Jan 25, 9:10pm

Sat Jan 25, 9:01pm

Sat Jan 25, 8:10pm

Sat Jan 25, 8:01pm

Sat Jan 25, 7:10pm

Sat Jan 25, 7:01pm

Sat Jan 25, 6:10pm

Sat Jan 25, 6:01pm

Sat Jan 25, 5:10pm

Sat Jan 25, 5:01pm

Sat Jan 25, 4:10pm

Sat Jan 25, 4:00pm

Sat Jan 25, 3:10pm

Sat Jan 25, 3:01pm

Sat Jan 25, 2:10pm

Sat Jan 25, 2:00pm

Sat Jan 25, 1:10pm

Sat Jan 25, 1:00pm

Sat Jan 25, 12:10pm

Sat Jan 25, 12:00pm

Sat Jan 25, 11:10am

Sat Jan 25, 11:00am

Sat Jan 25, 10:10am

Sat Jan 25, 10:00am

Sat Jan 25, 9:10am

Sat Jan 25, 9:00am

Sat Jan 25, 8:10am

Sat Jan 25, 8:01am

Sat Jan 25, 7:10am

Sat Jan 25, 7:00am

Sat Jan 25, 6:10am

Sat Jan 25, 6:00am

Sat Jan 25, 5:10am

Sat Jan 25, 5:00am

Meta data:

ID: 6781f2a7-9b48-4531-b55b-5da2a2f2062b
Link: https://api.weather.gov/products/6781f2a7-9b48-4531-b55b-5da2a2f2062b